TimeCST,TemperatureF,Dew PointF,Humidity,Sea Level PressureIn,VisibilityMPH,Wind Direction,Wind SpeedMPH,Gust SpeedMPH,PrecipitationIn,Events,Conditions,WindDirDegrees,DateUTC
12:53 AM,37.0,28.9,73,30.37,10.0,North,-9999.0,-,N/A,,Clear,0,2012-11-17 06:53:00
1:53 AM,35.1,28.9,78,30.37,10.0,NE,8.1,-,N/A,,Clear,40,2012-11-17 07:53:00
2:53 AM,34.0,28.9,82,30.37,10.0,NE,6.9,-,N/A,,Clear,40,2012-11-17 08:53:00
3:53 AM,33.1,28.0,82,30.37,10.0,NE,5.8,-,N/A,,Clear,40,2012-11-17 09:53:00
4:53 AM,33.1,28.0,82,30.38,10.0,NNE,6.9,-,N/A,,Clear,30,2012-11-17 10:53:00
5:53 AM,32.0,28.0,85,30.40,10.0,NE,6.9,-,N/A,,Clear,40,2012-11-17 11:53:00
6:53 AM,33.1,28.0,82,30.42,10.0,NNE,6.9,-,N/A,,Clear,30,2012-11-17 12:53:00
7:53 AM,39.0,32.0,76,30.43,10.0,NNE,6.9,-,N/A,,Clear,30,2012-11-17 13:53:00
8:53 AM,46.0,34.0,63,30.44,10.0,NE,4.6,-,N/A,,Clear,50,2012-11-17 14:53:00
9:53 AM,52.0,33.1,49,30.45,10.0,Calm,Calm,-,N/A,,Clear,0,2012-11-17 15:53:00
10:53 AM,57.9,35.1,42,30.44,10.0,Calm,Calm,-,N/A,,Clear,0,2012-11-17 16:53:00
11:53 AM,60.1,36.0,41,30.41,10.0,SSW,3.5,-,N/A,,Clear,210,2012-11-17 17:53:00
12:53 PM,62.1,34.0,35,30.38,10.0,Variable,3.5,-,N/A,,Clear,0,2012-11-17 18:53:00
1:53 PM,63.0,34.0,34,30.36,10.0,Calm,Calm,-,N/A,,Clear,0,2012-11-17 19:53:00
2:53 PM,64.0,30.9,29,30.35,10.0,Calm,Calm,-,N/A,,Clear,0,2012-11-17 20:53:00
3:53 PM,62.1,34.0,35,30.35,10.0,NNE,5.8,-,N/A,,Clear,30,2012-11-17 21:53:00
4:53 PM,57.0,35.1,44,30.36,10.0,NNW,3.5,-,N/A,,Clear,340,2012-11-17 22:53:00
5:53 PM,52.0,36.0,54,30.35,10.0,Calm,Calm,-,N/A,,Clear,0,2012-11-17 23:53:00
6:53 PM,48.0,36.0,63,30.36,10.0,Calm,Calm,-,N/A,,Clear,0,2012-11-18 00:53:00
7:53 PM,42.1,36.0,79,30.37,10.0,ENE,3.5,-,N/A,,Clear,60,2012-11-18 01:53:00
8:53 PM,42.1,35.1,76,30.38,10.0,Calm,Calm,-,N/A,,Clear,0,2012-11-18 02:53:00
9:53 PM,39.9,35.1,83,30.38,10.0,Calm,Calm,-,N/A,,Clear,0,2012-11-18 03:53:00
10:53 PM,39.9,35.1,83,30.38,10.0,Calm,Calm,-,N/A,,Clear,0,2012-11-18 04:53:00
11:53 PM,37.0,33.1,86,30.38,10.0,NE,3.5,-,N/A,,Clear,40,2012-11-18 05:53:00